Location: Staunton
(38.1490°N, 79.0720°W)
Time: 14:22:05
(UTC-04:00)

ISS - Pass Details

Date: 15 July 2019
Orbit: 409 x 418 km, 51.6° (Epoch: 20 July)

Event Time Altitude Azimuth Distance (km) Brightness Sun altitude
Rises 22:27:04 0° 223° (SW) 2,339 0.0 -17.6°
Reaches altitude 10° 22:29:10 10° 220° (SW) 1,479 -1.1 -17.9°
Enters shadow 22:31:50 51° 192° (SSW) 528 -3.6 -18.2°
Exits shadow 22:35:25 12° 57° (ENE) 1,345 -1.3 -18.7°
Drops below altitude 10° 22:35:45 10° 56° (NE) 1,483 -1.1 -18.7°
Sets 22:37:51 0° 53° (NE) 2,346 0.0 -19.0°
